TimeCEST,TemperatureF,Dew PointF,Humidity,Sea Level PressureIn,VisibilityMPH,Wind Direction,Wind SpeedMPH,Gust SpeedMPH,PrecipitationIn,Events,Conditions,WindDirDegrees,DateUTC
2:00 AM,51,50,96,29.96,12,ENE,3.5,,,,,70,2012-10-21 00:00:00
5:00 AM,48.2,48.2,100,29.95,-9999.0,Calm,Calm,-,N/A,,Clear,0,2012-10-21 03:00:00
5:30 AM,48.2,48.2,100,29.95,-9999.0,Calm,Calm,-,N/A,,Clear,0,2012-10-21 03:30:00
6:00 AM,50.0,48.2,94,29.95,-9999.0,Calm,Calm,-,N/A,,Clear,0,2012-10-21 04:00:00
7:00 AM,48.2,46.4,93,29.95,-9999.0,Calm,Calm,-,N/A,,Clear,0,2012-10-21 05:00:00
7:30 AM,46.4,46.4,100,29.95,-9999.0,East,3.5,-,N/A,,Clear,80,2012-10-21 05:30:00
8:00 AM,47,47,100,29.97,19,Calm,Calm,,,,Scattered Clouds,,2012-10-21 06:00:00
8:00 AM,48.2,46.4,93,29.95,-9999.0,Calm,Calm,-,N/A,,Clear,0,2012-10-21 06:00:00
8:30 AM,48.2,46.4,93,29.95,6.2,Calm,Calm,-,N/A,,Partly Cloudy,0,2012-10-21 06:30:00
9:00 AM,46.4,46.4,100,29.98,6.2,Variable,2.3,-,N/A,,Partly Cloudy,0,2012-10-21 07:00:00
9:30 AM,50.0,50.0,100,29.98,-9999.0,Calm,Calm,-,N/A,,Clear,0,2012-10-21 07:30:00
10:30 AM,55.4,53.6,94,30.01,6.2,Calm,Calm,-,N/A,,Mostly Cloudy,0,2012-10-21 08:30:00
11:00 AM,59.0,55.4,88,30.01,6.2,Calm,Calm,-,N/A,,Mostly Cloudy,0,2012-10-21 09:00:00
11:30 AM,59.0,53.6,82,30.01,6.2,Variable,1.2,-,N/A,,Mostly Cloudy,0,2012-10-21 09:30:00
12:30 PM,64.4,53.6,68,30.01,6.2,SSE,3.5,-,N/A,,Mostly Cloudy,150,2012-10-21 10:30:00
1:00 PM,66.2,55.4,68,30.01,6.2,South,3.5,-,N/A,,Mostly Cloudy,190,2012-10-21 11:00:00
1:30 PM,66.2,57.2,73,30.01,6.2,South,5.8,-,N/A,,Mostly Cloudy,180,2012-10-21 11:30:00
2:00 PM,67,57,63,30.01,19,South,9.2,,,,Mostly Cloudy,190,2012-10-21 12:00:00
2:00 PM,66.2,55.4,68,30.01,6.2,South,8.1,-,N/A,,Mostly Cloudy,190,2012-10-21 12:00:00
2:30 PM,68.0,55.4,64,29.98,6.2,South,8.1,-,N/A,,Mostly Cloudy,190,2012-10-21 12:30:00
3:00 PM,68.0,57.2,68,29.98,6.2,SSW,11.5,-,N/A,,Mostly Cloudy,200,2012-10-21 13:00:00
3:30 PM,68.0,59.0,73,29.98,6.2,SSW,11.5,-,N/A,,Mostly Cloudy,210,2012-10-21 13:30:00
4:00 PM,66.2,60.8,83,29.98,6.2,SW,18.4,-,N/A,,Light Drizzle,220,2012-10-21 14:00:00
4:30 PM,66.2,60.8,83,29.98,6.2,SSW,11.5,-,N/A,,Mostly Cloudy,200,2012-10-21 14:30:00
5:00 PM,66.2,60.8,83,29.98,6.2,SSW,10.4,-,N/A,,Mostly Cloudy,210,2012-10-21 15:00:00
5:30 PM,68.0,60.8,78,29.98,6.2,SSW,12.7,-,N/A,,Mostly Cloudy,210,2012-10-21 15:30:00
6:00 PM,68.0,62.6,83,29.98,6.2,SSW,11.5,-,N/A,,Mostly Cloudy,210,2012-10-21 16:00:00
6:30 PM,66.2,60.8,83,29.98,6.2,SSW,9.2,-,N/A,,Overcast,210,2012-10-21 16:30:00
7:00 PM,66.2,60.8,83,29.98,5.6,SSW,8.1,-,N/A,,Light Drizzle,210,2012-10-21 17:00:00
7:30 PM,66.2,62.6,88,30.01,5.6,South,4.6,-,N/A,,Light Drizzle,180,2012-10-21 17:30:00
8:00 PM,65,63,91,30.01,5,SSE,3.5,,,Rain,Light Drizzle,160,2012-10-21 18:00:00
8:00 PM,66.2,62.6,88,30.01,5.0,Variable,2.3,-,N/A,,Light Drizzle,0,2012-10-21 18:00:00
8:30 PM,64.4,62.6,94,30.01,6.2,SSE,3.5,-,N/A,,Overcast,160,2012-10-21 18:30:00
9:00 PM,66.2,64.4,94,30.01,5.0,South,5.8,-,N/A,,Light Drizzle,190,2012-10-21 19:00:00
9:30 PM,64.4,64.4,100,30.01,6.2,SSW,6.9,-,N/A,,Overcast,210,2012-10-21 19:30:00
10:00 PM,64.4,64.4,100,30.01,6.2,Variable,2.3,-,N/A,,Mostly Cloudy,0,2012-10-21 20:00:00
10:30 PM,64.4,64.4,100,30.04,6.2,Variable,2.3,-,N/A,,Mostly Cloudy,0,2012-10-21 20:30:00
11:00 PM,64.4,64.4,100,30.04,6.2,Variable,1.2,-,N/A,,Mostly Cloudy,0,2012-10-21 21:00:00